| time (UTC) | temp C | wind direction | speed KPH | gust KPH | rain 1hr cm | rain 24hr cm | rain mn cm | humidity % | barometer mb |
| 20260510104558 | 11 | 175 | 1.6 | 8.0 | 0.00 | 0.71 | 0.00 | 92 | 1011.1 |
| 20260510103053 | 11 | 0 | 0.0 | 9.7 | 0.00 | 0.71 | 0.00 | 92 | 1010.6 |
| 20260510101552 | 11 | 0 | 1.6 | 8.0 | 0.00 | 0.71 | 0.00 | 92 | 1010.3 |
| 20260510100051 | 11 | 173 | 1.6 | 8.0 | 0.00 | 0.71 | 0.00 | 92 | 1010.0 |
| 20260510094552 | 11 | 194 | 1.6 | 6.4 | 0.00 | 0.71 | 0.00 | 92 | 1009.9 |
| 20260510093104 | 11 | 164 | 1.6 | 8.0 | 0.00 | 0.71 | 0.00 | 92 | 1009.8 |
| 20260510091557 | 11 | 172 | 1.6 | 8.0 | 0.00 | 0.71 | 0.00 | 92 | 1009.4 |
| 20260510090052 | 11 | 130 | 1.6 | 6.4 | 0.00 | 0.71 | 0.00 | 92 | 1009.4 |
| 20260510084554 | 11 | 118 | 0.0 | 6.4 | 0.00 | 0.71 | 0.00 | 93 | 1009.3 |
| 20260510083053 | 11 | 190 | 1.6 | 6.4 | 0.00 | 0.71 | 0.00 | 93 | 1009.5 |
| 20260510081621 | 11 | 0 | 0.0 | 6.4 | 0.00 | 0.71 | 0.00 | 93 | 1009.3 |
| 20260510080051 | 11 | 0 | 1.6 | 9.7 | 0.00 | 0.71 | 0.00 | 93 | 1009.3 |
| 20260510074553 | 11 | 219 | 1.6 | 6.4 | 0.00 | 0.71 | 0.00 | 92 | 1009.2 |
| 20260510073104 | 11 | 0 | 0.0 | 4.8 | 0.00 | 0.71 | 0.00 | 92 | 1009.7 |
| 20260510071558 | 11 | 136 | 1.6 | 8.0 | 0.00 | 0.71 | 0.00 | 92 | 1010.0 |
| 20260510070058 | 11 | 0 | 1.6 | 8.0 | 0.00 | 0.71 | 0.00 | 92 | 1010.1 |
| 20260510064556 | 11 | 180 | 1.6 | 8.0 | 0.00 | 0.71 | 0.00 | 92 | 1010.2 |
| 20260510063055 | 11 | 131 | 0.0 | 4.8 | 0.00 | 0.71 | 0.00 | 92 | 1010.1 |
| 20260510061551 | 11 | 182 | 0.0 | 4.8 | 0.00 | 0.71 | 0.00 | 91 | 1010.0 |
| 20260510060054 | 11 | 0 | 1.6 | 6.4 | 0.00 | 0.71 | 0.00 | 91 | 1009.6 |
| 20260510054550 | 11 | 0 | 0.0 | 4.8 | 0.00 | 0.71 | 0.00 | 91 | 1009.6 |
| 20260510053106 | 11 | 151 | 0.0 | 6.4 | 0.00 | 0.71 | 0.00 | 91 | 1009.8 |
| 20260510051601 | 11 | 142 | 1.6 | 4.8 | 0.00 | 0.71 | 0.00 | 91 | 1009.9 |
| 20260510050100 | 11 | 0 | 1.6 | 9.7 | 0.00 | 0.71 | 0.00 | 91 | 1009.7 |
| 20260510044604 | 11 | 0 | 0.0 | 4.8 | 0.00 | 0.71 | 0.00 | 91 | 1009.7 |
| 20260510043101 | 11 | 0 | 0.0 | 6.4 | 0.00 | 0.71 | 0.00 | 91 | 1009.7 |
| 20260510041602 | 11 | 232 | 1.6 | 6.4 | 0.00 | 0.71 | 0.00 | 91 | 1009.7 |
| 20260510040056 | 11 | 0 | 1.6 | 6.4 | 0.00 | 0.71 | 0.00 | 91 | 1009.6 |
| 20260510034557 | 11 | 0 | 0.0 | 3.2 | 0.00 | 0.71 | 0.71 | 90 | 1009.8 |
| 20260510033108 | 11 | 0 | 0.0 | 6.4 | 0.00 | 0.71 | 0.71 | 89 | 1009.5 |
| 20260510031555 | 11 | 159 | 0.0 | 8.0 | 0.00 | 0.71 | 0.71 | 89 | 1009.4 |
| 20260510030110 | 11 | 0 | 0.0 | 6.4 | 0.00 | 0.71 | 0.71 | 88 | 1009.4 |
| 20260510024553 | 11 | 0 | 0.0 | 4.8 | 0.00 | 0.71 | 0.71 | 88 | 1009.6 |
| 20260510023055 | 12 | 0 | 0.0 | 3.2 | 0.00 | 0.71 | 0.71 | 89 | 1009.6 |
| 20260510021552 | 12 | 138 | 1.6 | 8.0 | 0.00 | 0.71 | 0.71 | 88 | 1009.6 |
| 20260510020051 | 12 | 167 | 0.0 | 3.2 | 0.00 | 0.71 | 0.71 | 89 | 1009.7 |
| 20260510014558 | 12 | 0 | 0.0 | 3.2 | 0.00 | 0.71 | 0.71 | 89 | 1009.8 |
| 20260510013055 | 12 | 0 | 0.0 | 3.2 | 0.00 | 0.71 | 0.71 | 89 | 1009.6 |
| 20260510011552 | 12 | 153 | 0.0 | 6.4 | 0.00 | 0.71 | 0.71 | 89 | 1009.6 |
| 20260510010054 | 12 | 0 | 0.0 | 1.6 | 0.00 | 0.71 | 0.71 | 89 | 1009.7 |
| 20260510004553 | 12 | 0 | 0.0 | 1.6 | 0.00 | 0.71 | 0.71 | 89 | 1009.5 |
| 20260510003101 | 12 | 0 | 0.0 | 6.4 | 0.00 | 0.71 | 0.71 | 89 | 1009.4 |
| 20260510001556 | 12 | 0 | 0.0 | 6.4 | 0.00 | 0.71 | 0.71 | 89 | 1009.1 |
| 20260510000057 | 12 | 0 | 0.0 | 6.4 | 0.00 | 0.71 | 0.71 | 89 | 1008.8 |
| 20260509234556 | 12 | 0 | 1.6 | 6.4 | 0.00 | 0.71 | 0.71 | 89 | 1008.8 |
| 20260509233101 | 12 | 157 | 1.6 | 6.4 | 0.00 | 0.71 | 0.71 | 89 | 1008.5 |
| 20260509231555 | 12 | 0 | 1.6 | 12.9 | 0.00 | 0.71 | 0.71 | 89 | 1008.3 |
| 20260509230059 | 12 | 167 | 1.6 | 12.9 | 0.00 | 0.71 | 0.71 | 89 | 1008.1 |
| 20260509224553 | 12 | 179 | 1.6 | 12.9 | 0.00 | 0.71 | 0.71 | 89 | 1008.4 |
| 20260509223100 | 12 | 193 | 1.6 | 11.3 | 0.00 | 0.71 | 0.71 | 91 | 1008.4 |
| 20260509221553 | 12 | 186 | 0.0 | 8.0 | 0.00 | 0.71 | 0.71 | 92 | 1008.5 |
| 20260509220051 | 12 | 209 | 1.6 | 12.9 | 0.00 | 0.71 | 0.71 | 93 | 1008.5 |
| 20260509214553 | 12 | 211 | 1.6 | 8.0 | 0.00 | 0.71 | 0.71 | 94 | 1008.6 |
| 20260509213055 | 12 | 143 | 1.6 | 8.0 | 0.00 | 0.71 | 0.71 | 94 | 1008.7 |
| 20260509211553 | 12 | 175 | 1.6 | 11.3 | 0.00 | 0.71 | 0.71 | 94 | 1008.6 |
| 20260509210055 | 11 | 236 | 1.6 | 8.0 | 0.00 | 0.71 | 0.71 | 95 | 1008.9 |
| 20260509204556 | 11 | 178 | 3.2 | 11.3 | 0.00 | 0.71 | 0.71 | 95 | 1009.0 |
| 20260509203106 | 11 | 140 | 1.6 | 8.0 | 0.00 | 0.71 | 0.71 | 95 | 1009.2 |
| 20260509201601 | 11 | 0 | 1.6 | 9.7 | 0.00 | 0.71 | 0.71 | 95 | 1009.3 |
| 20260509200106 | 11 | 180 | 1.6 | 8.0 | 0.03 | 0.71 | 0.71 | 95 | 1009.5 |
| 20260509194554 | 11 | 0 | 0.0 | 6.4 | 0.05 | 0.71 | 0.71 | 95 | 1009.8 |
| 20260509193112 | 10 | 180 | 0.0 | 6.4 | 0.08 | 0.71 | 0.71 | 95 | 1009.9 |
| 20260509191600 | 10 | 223 | 0.0 | 6.4 | 0.08 | 0.71 | 0.71 | 95 | 1010.0 |
| 20260509190059 | 10 | 0 | 0.0 | 8.0 | 0.08 | 0.69 | 0.69 | 94 | 1010.1 |
| 20260509184608 | 10 | 175 | 1.6 | 8.0 | 0.05 | 0.66 | 0.66 | 94 | 1010.3 |
| 20260509183057 | 10 | 157 | 0.0 | 8.0 | 0.03 | 0.64 | 0.64 | 95 | 1010.2 |
| 20260509181557 | 10 | 190 | 0.0 | 6.4 | 0.05 | 0.64 | 0.64 | 94 | 1010.3 |
| 20260509180055 | 10 | 195 | 0.0 | 6.4 | 0.03 | 0.61 | 0.61 | 95 | 1010.2 |
| 20260509174557 | 9 | 178 | 0.0 | 6.4 | 0.05 | 0.61 | 0.61 | 95 | 1010.4 |
| 20260509173106 | 9 | 186 | 0.0 | 8.0 | 0.05 | 0.61 | 0.61 | 94 | 1010.6 |
| 20260509171615 | 8 | 0 | 0.0 | 4.8 | 0.03 | 0.58 | 0.58 | 94 | 1010.8 |
| 20260509164553 | 8 | 0 | 0.0 | 4.8 | 0.05 | 0.56 | 0.56 | 94 | 1010.9 |
| 20260509163110 | 8 | 0 | 0.0 | 3.2 | 0.05 | 0.56 | 0.56 | 94 | 1011.1 |
| 20260509161554 | 8 | 0 | 0.0 | 6.4 | 0.08 | 0.56 | 0.56 | 94 | 1011.5 |
| 20260509160052 | 8 | 0 | 0.0 | 4.8 | 0.08 | 0.53 | 0.53 | 94 | 1011.8 |
| 20260509154552 | 8 | 184 | 0.0 | 4.8 | 0.10 | 0.51 | 0.51 | 94 | 1012.0 |
| 20260509153052 | 8 | 165 | 0.0 | 6.4 | 0.15 | 0.51 | 0.51 | 94 | 1012.2 |
| 20260509151552 | 7 | 180 | 0.0 | 4.8 | 0.18 | 0.48 | 0.48 | 94 | 1012.5 |
| 20260509144651 | 7 | 0 | 1.6 | 6.4 | 0.18 | 0.41 | 0.41 | 94 | 1012.6 |
| 20260509143054 | 7 | 198 | 0.0 | 4.8 | 0.18 | 0.36 | 0.36 | 94 | 1012.5 |
| 20260509141552 | 7 | 196 | 0.0 | 3.2 | 0.13 | 0.30 | 0.30 | 94 | 1012.4 |
| 20260509140051 | 7 | 0 | 0.0 | 4.8 | 0.08 | 0.25 | 0.25 | 93 | 1012.3 |
| 20260509134551 | 7 | 161 | 0.0 | 6.4 | 0.08 | 0.23 | 0.23 | 93 | 1012.2 |
| 20260509133052 | 7 | 0 | 0.0 | 1.6 | 0.05 | 0.18 | 0.18 | 93 | 1012.2 |
| 20260509131553 | 7 | 0 | 0.0 | 3.2 | 0.08 | 0.18 | 0.18 | 93 | 1012.3 |
| 20260509124610 | 7 | 0 | 0.0 | 3.2 | 0.13 | 0.15 | 0.15 | 92 | 1012.3 |
| 20260509123058 | 7 | 0 | 0.0 | 3.2 | 0.10 | 0.13 | 0.13 | 92 | 1012.6 |
| 20260509121551 | 6 | 0 | 0.0 | 4.8 | 0.08 | 0.10 | 0.10 | 92 | 1012.3 |
| 20260509120106 | 6 | 171 | 0.0 | 6.4 | 0.03 | 0.05 | 0.05 | 92 | 1012.7 |
| 20260509114554 | 6 | 163 | 0.0 | 4.8 | 0.00 | 0.03 | 0.03 | 92 | 1012.6 |
| 20260509113056 | 6 | 132 | 0.0 | 4.8 | 0.00 | 0.03 | 0.03 | 91 | 1012.5 |
| 20260509111555 | 6 | 0 | 0.0 | 3.2 | 0.00 | 0.03 | 0.03 | 91 | 1012.4 |
| 20260509110053 | 6 | 0 | 0.0 | 3.2 | 0.03 | 0.03 | 0.03 | 90 | 1012.4 |